• en Suisse
  • Liste des pays
  • À 7 jours
  • Température de l'eau
  • Carte satellitaire
  • Carte météo
  • Widgets météo
  • user-avatar
    Se connecter

    Météo par heure à Invercargill

    Ce jour, 20 Janvier, Samedi

    Heure Température Précipitation Vent Pression Humidité
    00:00 +17°C° 0 mm 2 m/s 756 mmHg 83%
    01:00 +17°C° 0 mm 2 m/s 756 mmHg 83%
    02:00 +16°C° 0 mm 2 m/s 756 mmHg 83%
    03:00 +16°C° 0 mm 3 m/s 757 mmHg 84%
    04:00 +16°C° 0 mm 3 m/s 757 mmHg 85%
    05:00 +17°C° 0 mm 3 m/s 757 mmHg 86%
    06:00 +19°C° 0 mm 3 m/s 757 mmHg 79%
    07:00 +21°C° 0 mm 4 m/s 757 mmHg 72%
    08:00 +22°C° 0 mm 5 m/s 758 mmHg 64%
    09:00 +23°C° 0 mm 5 m/s 758 mmHg 63%
    10:00 +23°C° 0 mm 5 m/s 758 mmHg 62%
    11:00 +23°C° 0 mm 6 m/s 758 mmHg 61%
    12:00 +23°C° 0 mm 6 m/s 758 mmHg 61%
    13:00 +23°C° 0 mm 5 m/s 759 mmHg 60%
    14:00 +23°C° 0 mm 4 m/s 759 mmHg 59%
    15:00 +22°C° 0 mm 4 m/s 759 mmHg 60%
    16:00 +21°C° 0 mm 4 m/s 759 mmHg 62%
    17:00 +21°C° 0 mm 4 m/s 759 mmHg 63%
    18:00 +19°C° 0 mm 3 m/s 759 mmHg 71%
    19:00 +17°C° 0 mm 3 m/s 760 mmHg 79%
    20:00 +15°C° 0 mm 2 m/s 760 mmHg 86%
    21:00 +15°C° 0 mm 2 m/s 761 mmHg 87%
    22:00 +14°C° 0 mm 2 m/s 761 mmHg 88%
    23:00 +14°C° 0 mm 1 m/s 761 mmHg 89%

    Demain, 21 Janvier, Dimanche

    Heure Température Précipitation Vent Pression Humidité
    00:00 +14°C° 0 mm 1 m/s 761 mmHg 89%
    01:00 +14°C° 0 mm 1 m/s 761 mmHg 89%
    02:00 +14°C° 0 mm 1 m/s 761 mmHg 89%
    03:00 +14°C° 0 mm 1 m/s 761 mmHg 90%
    04:00 +14°C° 0 mm 1 m/s 761 mmHg 90%
    05:00 +13°C° 0 mm 0 m/s 762 mmHg 90%
    06:00 +14°C° 0 mm 0 m/s 762 mmHg 84%
    07:00 +16°C° 0 mm 0 m/s 762 mmHg 78%
    08:00 +17°C° 0 mm 0 m/s 762 mmHg 72%
    09:00 +21°C° 0 mm 1 m/s 761 mmHg 68%
    10:00 +22°C° 0 mm 1 m/s 761 mmHg 64%
    11:00 +23°C° 0 mm 1 m/s 761 mmHg 61%
    12:00 +23°C° 0 mm 2 m/s 761 mmHg 61%
    13:00 +23°C° 0 mm 2 m/s 760 mmHg 61%
    14:00 +24°C° 0 mm 2 m/s 760 mmHg 61%
    15:00 +23°C° 0 mm 2 m/s 760 mmHg 64%
    16:00 +22°C° 0 mm 3 m/s 759 mmHg 67%
    17:00 +22°C° 0 mm 3 m/s 759 mmHg 70%
    18:00 +20°C° 0 mm 2 m/s 759 mmHg 76%
    19:00 +19°C° 0 mm 2 m/s 759 mmHg 82%
    20:00 +19°C° 0 mm 1 m/s 759 mmHg 88%
    21:00 +18°C° 0,1 mm 1 m/s 759 mmHg 91%
    22:00 +18°C° 0,1 mm 1 m/s 759 mmHg 93%
    23:00 +16°C° 0,1 mm 1 m/s 759 mmHg 96%

    Après-demain, 22 Janvier, Lundi

    Heure Température Précipitation Vent Pression Humidité
    00:00 +15°C° 0,8 mm 0 m/s 759 mmHg 97%
    01:00 +15°C° 0,8 mm 0 m/s 758 mmHg 98%
    02:00 +15°C° 0,8 mm 0 m/s 758 mmHg 99%
    03:00 +15°C° 0,2 mm 0 m/s 758 mmHg 99%
    04:00 +15°C° 0,2 mm 0 m/s 757 mmHg 99%
    05:00 +15°C° 0,2 mm 0 m/s 757 mmHg 99%
    06:00 +16°C° 0,1 mm 0 m/s 757 mmHg 98%
    07:00 +18°C° 0,1 mm 1 m/s 757 mmHg 98%
    08:00 +19°C° 0,1 mm 1 m/s 757 mmHg 98%
    09:00 +21°C° 0,1 mm 1 m/s 757 mmHg 90%
    10:00 +23°C° 0,1 mm 1 m/s 757 mmHg 82%
    11:00 +25°C° 0,1 mm 1 m/s 757 mmHg 74%
    12:00 +25°C° 0,5 mm 1 m/s 757 mmHg 75%
    13:00 +25°C° 0,5 mm 1 m/s 757 mmHg 75%
    14:00 +25°C° 0,5 mm 2 m/s 757 mmHg 76%
    15:00 +24°C° 0,4 mm 2 m/s 757 mmHg 76%
    16:00 +24°C° 0,4 mm 1 m/s 756 mmHg 75%
    17:00 +24°C° 0,4 mm 1 m/s 756 mmHg 75%
    18:00 +22°C° 0,1 mm 1 m/s 757 mmHg 80%
    19:00 +21°C° 0,1 mm 1 m/s 757 mmHg 86%
    20:00 +19°C° 0,1 mm 1 m/s 757 mmHg 92%
    21:00 +19°C° 0 mm 1 m/s 757 mmHg 93%
    22:00 +18°C° 0 mm 1 m/s 757 mmHg 95%
    23:00 +17°C° 0 mm 2 m/s 758 mmHg 96%

    23 Janvier, Mardi

    Heure Température Précipitation Vent Pression Humidité
    00:00 +17°C° 0 mm 2 m/s 757 mmHg 96%
    01:00 +17°C° 0 mm 2 m/s 757 mmHg 95%
    02:00 +16°C° 0 mm 2 m/s 757 mmHg 95%
    03:00 +16°C° 0 mm 2 m/s 757 mmHg 93%
    04:00 +16°C° 0 mm 2 m/s 757 mmHg 92%
    05:00 +16°C° 0 mm 2 m/s 757 mmHg 91%
    06:00 +19°C° 0 mm 2 m/s 757 mmHg 80%
    07:00 +21°C° 0 mm 3 m/s 757 mmHg 68%
    08:00 +24°C° 0 mm 3 m/s 756 mmHg 57%
    09:00 +27°C° 0 mm 3 m/s 756 mmHg 50%
    10:00 +29°C° 0 mm 3 m/s 756 mmHg 42%
    11:00 +31°C° 0 mm 3 m/s 755 mmHg 35%
    12:00 +31°C° 0 mm 3 m/s 755 mmHg 35%
    13:00 +32°C° 0 mm 4 m/s 755 mmHg 35%
    14:00 +33°C° 0 mm 5 m/s 754 mmHg 36%
    15:00 +30°C° 0 mm 4 m/s 754 mmHg 43%
    16:00 +28°C° 0 mm 4 m/s 754 mmHg 51%
    17:00 +27°C° 0 mm 4 m/s 754 mmHg 58%
    18:00 +26°C° 0 mm 3 m/s 754 mmHg 62%
    19:00 +25°C° 0 mm 3 m/s 754 mmHg 65%
    20:00 +24°C° 0 mm 2 m/s 754 mmHg 69%
    21:00 +24°C° 0 mm 3 m/s 754 mmHg 69%
    22:00 +24°C° 0 mm 3 m/s 754 mmHg 69%
    23:00 +24°C° 0 mm 3 m/s 754 mmHg 69%

    24 Janvier, Mercredi

    Heure Température Précipitation Vent Pression Humidité
    00:00 +22°C° 0,3 mm 3 m/s 754 mmHg 77%
    01:00 +21°C° 0,3 mm 4 m/s 754 mmHg 85%
    02:00 +20°C° 0,3 mm 4 m/s 754 mmHg 92%
    03:00 +19°C° 0,5 mm 4 m/s 754 mmHg 94%
    04:00 +19°C° 0,5 mm 4 m/s 755 mmHg 96%
    05:00 +18°C° 0,5 mm 4 m/s 755 mmHg 97%
    06:00 +18°C° 0 mm 4 m/s 756 mmHg 91%
    07:00 +18°C° 0 mm 4 m/s 757 mmHg 85%
    08:00 +19°C° 0 mm 3 m/s 757 mmHg 79%
    09:00 +19°C° 0 mm 3 m/s 758 mmHg 74%
    10:00 +20°C° 0 mm 3 m/s 758 mmHg 68%
    11:00 +21°C° 0 mm 3 m/s 758 mmHg 63%
    12:00 +22°C° 0 mm 3 m/s 758 mmHg 61%
    13:00 +22°C° 0 mm 3 m/s 758 mmHg 58%
    14:00 +22°C° 0 mm 3 m/s 758 mmHg 56%
    15:00 +22°C° 0 mm 3 m/s 758 mmHg 56%
    16:00 +23°C° 0 mm 2 m/s 758 mmHg 56%
    17:00 +23°C° 0 mm 2 m/s 758 mmHg 57%
    18:00 +20°C° 0 mm 2 m/s 758 mmHg 66%
    19:00 +19°C° 0 mm 1 m/s 759 mmHg 75%
    20:00 +16°C° 0 mm 1 m/s 759 mmHg 84%
    21:00 +15°C° 0 mm 1 m/s 759 mmHg 87%
    22:00 +14°C° 0 mm 1 m/s 759 mmHg 90%
    23:00 +14°C° 0 mm 1 m/s 758 mmHg 92%

    25 Janvier, Jeudi

    Heure Température Précipitation Vent Pression Humidité
    00:00 +14°C° 0 mm 1 m/s 758 mmHg 93%
    01:00 +15°C° 0 mm 1 m/s 757 mmHg 93%
    02:00 +15°C° 0 mm 2 m/s 757 mmHg 94%
    03:00 +16°C° 0,2 mm 2 m/s 756 mmHg 92%
    04:00 +17°C° 0,2 mm 2 m/s 756 mmHg 91%
    05:00 +18°C° 0,2 mm 2 m/s 756 mmHg 89%
    06:00 +19°C° 0,3 mm 3 m/s 757 mmHg 89%
    07:00 +20°C° 0,3 mm 4 m/s 757 mmHg 88%
    08:00 +21°C° 0,3 mm 5 m/s 757 mmHg 87%
    09:00 +22°C° 0,1 mm 6 m/s 758 mmHg 79%
    10:00 +23°C° 0,1 mm 6 m/s 758 mmHg 70%
    11:00 +24°C° 0,1 mm 6 m/s 759 mmHg 62%
    12:00 +24°C° 0 mm 6 m/s 759 mmHg 58%
    13:00 +24°C° 0 mm 6 m/s 760 mmHg 54%
    14:00 +24°C° 0 mm 6 m/s 760 mmHg 50%
    15:00 +23°C° 0 mm 6 m/s 760 mmHg 54%
    16:00 +22°C° 0 mm 6 m/s 761 mmHg 58%
    17:00 +20°C° 0 mm 5 m/s 761 mmHg 62%
    18:00 +17°C° 0 mm 5 m/s 762 mmHg 68%
    19:00 +17°C° 0 mm 4 m/s 763 mmHg 73%
    20:00 +14°C° 0 mm 3 m/s 763 mmHg 79%
    21:00 +13°C° 0 mm 3 m/s 764 mmHg 83%
    22:00 +13°C° 0 mm 2 m/s 764 mmHg 86%
    23:00 +13°C° 0 mm 2 m/s 765 mmHg 89%
    Voir plus